<?xml version="1.0"?>
<gpx xmlns="http://www.topografix.com/GPX/1/1" xmlns:xsi="http://www.w3.org/2001/XMLSchema-instance" version="1.1" creator="GPX RubyGem 1.0.0 -- http://dougfales.github.io/gpx/" xsi:schemaLocation="http://www.topografix.com/GPX/1/1 http://www.topografix.com/GPX/1/1/gpx.xsd">
  <metadata>
    <name/>
    <time>2026-05-08T15:03:02+00:00</time>
    <bound minlat="90.0" minlon="180.0" maxlat="-90.0" maxlon="-180.0"/>
  </metadata>
  <trk>
    <name/>
    <trkseg>
      <trkpt lat="35.685132" lon="139.702886">
        <time>1970-01-01T00:00:00+00:00</time>
        <ele>35.0</ele>
      </trkpt>
      <trkpt lat="35.685254" lon="139.702851">
        <time>1970-01-01T00:00:00+00:00</time>
        <ele>35.0</ele>
      </trkpt>
      <trkpt lat="35.685213" lon="139.702643">
        <time>1970-01-01T00:00:00+00:00</time>
        <ele>35.0</ele>
      </trkpt>
      <trkpt lat="35.685165" lon="139.702513">
        <time>1970-01-01T00:00:00+00:00</time>
        <ele>35.0</ele>
      </trkpt>
      <trkpt lat="35.685316" lon="139.702468">
        <time>1970-01-01T00:00:00+00:00</time>
        <ele>35.0</ele>
      </trkpt>
      <trkpt lat="35.686164" lon="139.702269">
        <time>1970-01-01T00:00:00+00:00</time>
        <ele>41.0</ele>
      </trkpt>
      <trkpt lat="35.686397" lon="139.70235">
        <time>1970-01-01T00:00:00+00:00</time>
        <ele>44.0</ele>
      </trkpt>
      <trkpt lat="35.686532" lon="139.70246">
        <time>1970-01-01T00:00:00+00:00</time>
        <ele>47.0</ele>
      </trkpt>
      <trkpt lat="35.686556" lon="139.702419">
        <time>1970-01-01T00:00:00+00:00</time>
        <ele>46.0</ele>
      </trkpt>
      <trkpt lat="35.68706" lon="139.702799">
        <time>1970-01-01T00:00:00+00:00</time>
        <ele>49.0</ele>
      </trkpt>
      <trkpt lat="35.687137" lon="139.70288">
        <time>1970-01-01T00:00:00+00:00</time>
        <ele>50.0</ele>
      </trkpt>
      <trkpt lat="35.687149" lon="139.702945">
        <time>1970-01-01T00:00:00+00:00</time>
        <ele>51.0</ele>
      </trkpt>
      <trkpt lat="35.687257" lon="139.702909">
        <time>1970-01-01T00:00:00+00:00</time>
        <ele>52.0</ele>
      </trkpt>
      <trkpt lat="35.687505" lon="139.702834">
        <time>1970-01-01T00:00:00+00:00</time>
        <ele>55.0</ele>
      </trkpt>
      <trkpt lat="35.687517" lon="139.702899">
        <time>1970-01-01T00:00:00+00:00</time>
        <ele>56.0</ele>
      </trkpt>
      <trkpt lat="35.687539" lon="139.702998">
        <time>1970-01-01T00:00:00+00:00</time>
        <ele>57.0</ele>
      </trkpt>
      <trkpt lat="35.687597" lon="139.70298">
        <time>1970-01-01T00:00:00+00:00</time>
        <ele>57.0</ele>
      </trkpt>
      <trkpt lat="35.687606" lon="139.703025">
        <time>1970-01-01T00:00:00+00:00</time>
        <ele>58.0</ele>
      </trkpt>
      <trkpt lat="35.687827" lon="139.702981">
        <time>1970-01-01T00:00:00+00:00</time>
        <ele>57.0</ele>
      </trkpt>
      <trkpt lat="35.687971" lon="139.703021">
        <time>1970-01-01T00:00:00+00:00</time>
        <ele>54.0</ele>
      </trkpt>
      <trkpt lat="35.688109" lon="139.703125">
        <time>1970-01-01T00:00:00+00:00</time>
        <ele>51.0</ele>
      </trkpt>
      <trkpt lat="35.688491" lon="139.703381">
        <time>1970-01-01T00:00:00+00:00</time>
        <ele>41.0</ele>
      </trkpt>
      <trkpt lat="35.688589" lon="139.703447">
        <time>1970-01-01T00:00:00+00:00</time>
        <ele>40.0</ele>
      </trkpt>
      <trkpt lat="35.689596" lon="139.704154">
        <time>1970-01-01T00:00:00+00:00</time>
        <ele>54.0</ele>
      </trkpt>
      <trkpt lat="35.689656" lon="139.704258">
        <time>1970-01-01T00:00:00+00:00</time>
        <ele>54.0</ele>
      </trkpt>
      <trkpt lat="35.689666" lon="139.704532">
        <time>1970-01-01T00:00:00+00:00</time>
        <ele>49.0</ele>
      </trkpt>
      <trkpt lat="35.689672" lon="139.704759">
        <time>1970-01-01T00:00:00+00:00</time>
        <ele>45.0</ele>
      </trkpt>
      <trkpt lat="35.689581" lon="139.705377">
        <time>1970-01-01T00:00:00+00:00</time>
        <ele>37.0</ele>
      </trkpt>
      <trkpt lat="35.689482" lon="139.705715">
        <time>1970-01-01T00:00:00+00:00</time>
        <ele>38.0</ele>
      </trkpt>
      <trkpt lat="35.689357" lon="139.705972">
        <time>1970-01-01T00:00:00+00:00</time>
        <ele>39.0</ele>
      </trkpt>
      <trkpt lat="35.689255" lon="139.706081">
        <time>1970-01-01T00:00:00+00:00</time>
        <ele>39.0</ele>
      </trkpt>
      <trkpt lat="35.689193" lon="139.706075">
        <time>1970-01-01T00:00:00+00:00</time>
        <ele>38.0</ele>
      </trkpt>
      <trkpt lat="35.689033" lon="139.706406">
        <time>1970-01-01T00:00:00+00:00</time>
        <ele>41.0</ele>
      </trkpt>
      <trkpt lat="35.689092" lon="139.706458">
        <time>1970-01-01T00:00:00+00:00</time>
        <ele>42.0</ele>
      </trkpt>
      <trkpt lat="35.689111" lon="139.706507">
        <time>1970-01-01T00:00:00+00:00</time>
        <ele>43.0</ele>
      </trkpt>
      <trkpt lat="35.688839" lon="139.707252">
        <time>1970-01-01T00:00:00+00:00</time>
        <ele>53.0</ele>
      </trkpt>
      <trkpt lat="35.688732" lon="139.707235">
        <time>1970-01-01T00:00:00+00:00</time>
        <ele>50.0</ele>
      </trkpt>
      <trkpt lat="35.688511" lon="139.70737">
        <time>1970-01-01T00:00:00+00:00</time>
        <ele>48.0</ele>
      </trkpt>
      <trkpt lat="35.688357" lon="139.707504">
        <time>1970-01-01T00:00:00+00:00</time>
        <ele>47.0</ele>
      </trkpt>
      <trkpt lat="35.68831" lon="139.707544">
        <time>1970-01-01T00:00:00+00:00</time>
        <ele>47.0</ele>
      </trkpt>
      <trkpt lat="35.688261" lon="139.707586">
        <time>1970-01-01T00:00:00+00:00</time>
        <ele>46.0</ele>
      </trkpt>
      <trkpt lat="35.68814" lon="139.707751">
        <time>1970-01-01T00:00:00+00:00</time>
        <ele>46.0</ele>
      </trkpt>
      <trkpt lat="35.688003" lon="139.707739">
        <time>1970-01-01T00:00:00+00:00</time>
        <ele>46.0</ele>
      </trkpt>
      <trkpt lat="35.687833" lon="139.707659">
        <time>1970-01-01T00:00:00+00:00</time>
        <ele>46.0</ele>
      </trkpt>
      <trkpt lat="35.687564" lon="139.707435">
        <time>1970-01-01T00:00:00+00:00</time>
        <ele>46.0</ele>
      </trkpt>
      <trkpt lat="35.687368" lon="139.707389">
        <time>1970-01-01T00:00:00+00:00</time>
        <ele>47.0</ele>
      </trkpt>
      <trkpt lat="35.687319" lon="139.707346">
        <time>1970-01-01T00:00:00+00:00</time>
        <ele>47.0</ele>
      </trkpt>
      <trkpt lat="35.687182" lon="139.707135">
        <time>1970-01-01T00:00:00+00:00</time>
        <ele>47.0</ele>
      </trkpt>
      <trkpt lat="35.686949" lon="139.707028">
        <time>1970-01-01T00:00:00+00:00</time>
        <ele>49.0</ele>
      </trkpt>
      <trkpt lat="35.686815" lon="139.70711">
        <time>1970-01-01T00:00:00+00:00</time>
        <ele>49.0</ele>
      </trkpt>
      <trkpt lat="35.686745" lon="139.707125">
        <time>1970-01-01T00:00:00+00:00</time>
        <ele>49.0</ele>
      </trkpt>
      <trkpt lat="35.686573" lon="139.707149">
        <time>1970-01-01T00:00:00+00:00</time>
        <ele>48.0</ele>
      </trkpt>
      <trkpt lat="35.686456" lon="139.707124">
        <time>1970-01-01T00:00:00+00:00</time>
        <ele>47.0</ele>
      </trkpt>
      <trkpt lat="35.686432" lon="139.707101">
        <time>1970-01-01T00:00:00+00:00</time>
        <ele>46.0</ele>
      </trkpt>
      <trkpt lat="35.686283" lon="139.707011">
        <time>1970-01-01T00:00:00+00:00</time>
        <ele>43.0</ele>
      </trkpt>
      <trkpt lat="35.686157" lon="139.706964">
        <time>1970-01-01T00:00:00+00:00</time>
        <ele>41.0</ele>
      </trkpt>
      <trkpt lat="35.686145" lon="139.706924">
        <time>1970-01-01T00:00:00+00:00</time>
        <ele>40.0</ele>
      </trkpt>
      <trkpt lat="35.686143" lon="139.706772">
        <time>1970-01-01T00:00:00+00:00</time>
        <ele>40.0</ele>
      </trkpt>
      <trkpt lat="35.685968" lon="139.706607">
        <time>1970-01-01T00:00:00+00:00</time>
        <ele>37.0</ele>
      </trkpt>
      <trkpt lat="35.685876" lon="139.706453">
        <time>1970-01-01T00:00:00+00:00</time>
        <ele>36.0</ele>
      </trkpt>
      <trkpt lat="35.685793" lon="139.706476">
        <time>1970-01-01T00:00:00+00:00</time>
        <ele>36.0</ele>
      </trkpt>
      <trkpt lat="35.685822" lon="139.706322">
        <time>1970-01-01T00:00:00+00:00</time>
        <ele>36.0</ele>
      </trkpt>
      <trkpt lat="35.685921" lon="139.706236">
        <time>1970-01-01T00:00:00+00:00</time>
        <ele>36.0</ele>
      </trkpt>
      <trkpt lat="35.68602" lon="139.7061">
        <time>1970-01-01T00:00:00+00:00</time>
        <ele>38.0</ele>
      </trkpt>
      <trkpt lat="35.686061" lon="139.705977">
        <time>1970-01-01T00:00:00+00:00</time>
        <ele>39.0</ele>
      </trkpt>
      <trkpt lat="35.685854" lon="139.705942">
        <time>1970-01-01T00:00:00+00:00</time>
        <ele>37.0</ele>
      </trkpt>
      <trkpt lat="35.68579" lon="139.705935">
        <time>1970-01-01T00:00:00+00:00</time>
        <ele>36.0</ele>
      </trkpt>
      <trkpt lat="35.685792" lon="139.705913">
        <time>1970-01-01T00:00:00+00:00</time>
        <ele>36.0</ele>
      </trkpt>
      <trkpt lat="35.685734" lon="139.705907">
        <time>1970-01-01T00:00:00+00:00</time>
        <ele>36.0</ele>
      </trkpt>
      <trkpt lat="35.68565" lon="139.705907">
        <time>1970-01-01T00:00:00+00:00</time>
        <ele>35.0</ele>
      </trkpt>
      <trkpt lat="35.685603" lon="139.705878">
        <time>1970-01-01T00:00:00+00:00</time>
        <ele>36.0</ele>
      </trkpt>
      <trkpt lat="35.685603" lon="139.705878">
        <time>1970-01-01T00:00:00+00:00</time>
        <ele>36.0</ele>
      </trkpt>
      <trkpt lat="35.685567" lon="139.705856">
        <time>1970-01-01T00:00:00+00:00</time>
        <ele>36.0</ele>
      </trkpt>
      <trkpt lat="35.685492" lon="139.705854">
        <time>1970-01-01T00:00:00+00:00</time>
        <ele>36.0</ele>
      </trkpt>
      <trkpt lat="35.685344" lon="139.705946">
        <time>1970-01-01T00:00:00+00:00</time>
        <ele>35.0</ele>
      </trkpt>
      <trkpt lat="35.685255" lon="139.706009">
        <time>1970-01-01T00:00:00+00:00</time>
        <ele>35.0</ele>
      </trkpt>
      <trkpt lat="35.685213" lon="139.70599">
        <time>1970-01-01T00:00:00+00:00</time>
        <ele>36.0</ele>
      </trkpt>
      <trkpt lat="35.68508" lon="139.70586">
        <time>1970-01-01T00:00:00+00:00</time>
        <ele>37.0</ele>
      </trkpt>
      <trkpt lat="35.685042" lon="139.705804">
        <time>1970-01-01T00:00:00+00:00</time>
        <ele>38.0</ele>
      </trkpt>
      <trkpt lat="35.685028" lon="139.705505">
        <time>1970-01-01T00:00:00+00:00</time>
        <ele>38.0</ele>
      </trkpt>
      <trkpt lat="35.684944" lon="139.705336">
        <time>1970-01-01T00:00:00+00:00</time>
        <ele>39.0</ele>
      </trkpt>
      <trkpt lat="35.684955" lon="139.705078">
        <time>1970-01-01T00:00:00+00:00</time>
        <ele>39.0</ele>
      </trkpt>
      <trkpt lat="35.684944" lon="139.705008">
        <time>1970-01-01T00:00:00+00:00</time>
        <ele>39.0</ele>
      </trkpt>
      <trkpt lat="35.684618" lon="139.705239">
        <time>1970-01-01T00:00:00+00:00</time>
        <ele>40.0</ele>
      </trkpt>
      <trkpt lat="35.684422" lon="139.705408">
        <time>1970-01-01T00:00:00+00:00</time>
        <ele>40.0</ele>
      </trkpt>
      <trkpt lat="35.683957" lon="139.706047">
        <time>1970-01-01T00:00:00+00:00</time>
        <ele>40.0</ele>
      </trkpt>
      <trkpt lat="35.68371" lon="139.70646">
        <time>1970-01-01T00:00:00+00:00</time>
        <ele>41.0</ele>
      </trkpt>
      <trkpt lat="35.683432" lon="139.70704">
        <time>1970-01-01T00:00:00+00:00</time>
        <ele>42.0</ele>
      </trkpt>
      <trkpt lat="35.683236" lon="139.707684">
        <time>1970-01-01T00:00:00+00:00</time>
        <ele>41.0</ele>
      </trkpt>
      <trkpt lat="35.683225" lon="139.707822">
        <time>1970-01-01T00:00:00+00:00</time>
        <ele>42.0</ele>
      </trkpt>
      <trkpt lat="35.68324" lon="139.707947">
        <time>1970-01-01T00:00:00+00:00</time>
        <ele>43.0</ele>
      </trkpt>
      <trkpt lat="35.683342" lon="139.708248">
        <time>1970-01-01T00:00:00+00:00</time>
        <ele>44.0</ele>
      </trkpt>
      <trkpt lat="35.68309" lon="139.708531">
        <time>1970-01-01T00:00:00+00:00</time>
        <ele>43.0</ele>
      </trkpt>
      <trkpt lat="35.68263" lon="139.708837">
        <time>1970-01-01T00:00:00+00:00</time>
        <ele>42.0</ele>
      </trkpt>
      <trkpt lat="35.682558" lon="139.70894">
        <time>1970-01-01T00:00:00+00:00</time>
        <ele>42.0</ele>
      </trkpt>
      <trkpt lat="35.682506" lon="139.708877">
        <time>1970-01-01T00:00:00+00:00</time>
        <ele>42.0</ele>
      </trkpt>
      <trkpt lat="35.682442" lon="139.708831">
        <time>1970-01-01T00:00:00+00:00</time>
        <ele>42.0</ele>
      </trkpt>
      <trkpt lat="35.682226" lon="139.708674">
        <time>1970-01-01T00:00:00+00:00</time>
        <ele>43.0</ele>
      </trkpt>
      <trkpt lat="35.682668" lon="139.707785">
        <time>1970-01-01T00:00:00+00:00</time>
        <ele>41.0</ele>
      </trkpt>
      <trkpt lat="35.683073" lon="139.707003">
        <time>1970-01-01T00:00:00+00:00</time>
        <ele>41.0</ele>
      </trkpt>
      <trkpt lat="35.683428" lon="139.706356">
        <time>1970-01-01T00:00:00+00:00</time>
        <ele>43.0</ele>
      </trkpt>
      <trkpt lat="35.68357" lon="139.706132">
        <time>1970-01-01T00:00:00+00:00</time>
        <ele>42.0</ele>
      </trkpt>
      <trkpt lat="35.683775" lon="139.705874">
        <time>1970-01-01T00:00:00+00:00</time>
        <ele>41.0</ele>
      </trkpt>
      <trkpt lat="35.68398" lon="139.705611">
        <time>1970-01-01T00:00:00+00:00</time>
        <ele>40.0</ele>
      </trkpt>
      <trkpt lat="35.684448" lon="139.705039">
        <time>1970-01-01T00:00:00+00:00</time>
        <ele>40.0</ele>
      </trkpt>
      <trkpt lat="35.684971" lon="139.704376">
        <time>1970-01-01T00:00:00+00:00</time>
        <ele>40.0</ele>
      </trkpt>
      <trkpt lat="35.684635" lon="139.704027">
        <time>1970-01-01T00:00:00+00:00</time>
        <ele>41.0</ele>
      </trkpt>
      <trkpt lat="35.684576" lon="139.703979">
        <time>1970-01-01T00:00:00+00:00</time>
        <ele>41.0</ele>
      </trkpt>
      <trkpt lat="35.684453" lon="139.703794">
        <time>1970-01-01T00:00:00+00:00</time>
        <ele>41.0</ele>
      </trkpt>
      <trkpt lat="35.684415" lon="139.703746">
        <time>1970-01-01T00:00:00+00:00</time>
        <ele>40.0</ele>
      </trkpt>
      <trkpt lat="35.683735" lon="139.703015">
        <time>1970-01-01T00:00:00+00:00</time>
        <ele>40.0</ele>
      </trkpt>
      <trkpt lat="35.683775" lon="139.702979">
        <time>1970-01-01T00:00:00+00:00</time>
        <ele>40.0</ele>
      </trkpt>
      <trkpt lat="35.683781" lon="139.70295">
        <time>1970-01-01T00:00:00+00:00</time>
        <ele>40.0</ele>
      </trkpt>
      <trkpt lat="35.683784" lon="139.702933">
        <time>1970-01-01T00:00:00+00:00</time>
        <ele>40.0</ele>
      </trkpt>
      <trkpt lat="35.684838" lon="139.702679">
        <time>1970-01-01T00:00:00+00:00</time>
        <ele>36.0</ele>
      </trkpt>
      <trkpt lat="35.685041" lon="139.702573">
        <time>1970-01-01T00:00:00+00:00</time>
        <ele>35.0</ele>
      </trkpt>
      <trkpt lat="35.685082" lon="139.702698">
        <time>1970-01-01T00:00:00+00:00</time>
        <ele>35.0</ele>
      </trkpt>
      <trkpt lat="35.685035" lon="139.702716">
        <time>1970-01-01T00:00:00+00:00</time>
        <ele>35.0</ele>
      </trkpt>
      <trkpt lat="35.685072" lon="139.702903">
        <time>1970-01-01T00:00:00+00:00</time>
        <ele>35.0</ele>
      </trkpt>
      <trkpt lat="35.685132" lon="139.702886">
        <time>1970-01-01T00:00:00+00:00</time>
        <ele>35.0</ele>
      </trkpt>
    </trkseg>
  </trk>
</gpx>
